This demonstration page uses our WeatherBlox Daily Observations layout. Learn more.

Left ArrowRight Arrow

34.74481, -87.66753

Hourly Observations for May 17, 2017

Temp ( °F °C ) Dew Point ( °F °C ) Humidity (%) Winds ( mph kmh ) Pressure ( in mb ) Visibility ( mi km ) Precip ( " mm )
12:53 am 00:53 Clear 69 20.6 60 15.6 73 73 SE 6 9 29.92 1013 10 16 0.00 0.00
1:53 am 01:53 Clear 69 20.6 60 15.6 73 73 SSE 6 9 29.91 1013 10 16 0.00 0.00
2:53 am 02:53 Clear 67 19.4 60 15.6 79 79 SSE 5 7 29.92 1013 10 16 0.00 0.00
3:53 am 03:53 Clear 64 17.8 60 15.6 87 87 Calm 29.92 1013 10 16 0.00 0.00
4:53 am 04:53 Clear 64 17.8 59 15 84 84 SE 6 9 29.93 1013 10 16 0.00 0.00
5:53 am 05:53 Sunny 62 16.7 59 15 90 90 SE 5 7 29.94 1014 10 16 0.00 0.00
6:53 am 06:53 Sunny 67 19.4 61 16.1 81 81 SE 6 9 29.96 1015 10 16 0.00 0.00
7:53 am 07:53 Sunny 73 22.8 64 17.8 74 74 SE 7 11 29.97 1015 10 16 0.00 0.00
8:53 am 08:53 Sunny 78 25.6 62 16.7 58 58 S 12 19 29.98 1015 10 16 0.00 0.00
9:53 am 09:53 Sunny 83 28.3 58 14.4 43 43 SSW 14 22 30.00 1016 10 16 0.00 0.00
10:53 am 10:53 Mostly Cloudy 82 27.8 59 15 46 46 SSW 10 17 30.03 1017 10 16 0.00 0.00
11:53 am 11:53 Sunny 86 30 58 14.4 39 39 SW 18 30 30.02 1017 10 16 0.00 0.00
12:53 pm 12:53 Mostly Sunny 87 30.6 58 14.4 37 37 SSW 15 24 29.99 1016 10 16 0.00 0.00
1:53 pm 13:53 Mostly Sunny 89 31.7 56 13.3 33 33 SSW 18 30 29.97 1015 10 16 0.00 0.00
2:53 pm 14:53 Sunny 89 31.7 59 15 36 36 S 16 26 29.95 1014 10 16 0.00 0.00
3:53 pm 15:53 Sunny 89 31.7 57 13.9 34 34 SSW 18 30 29.93 1014 10 16 0.00 0.00
4:53 pm 16:53 Sunny 88 31.1 58 14.4 36 36 S 15 24 29.91 1013 10 16 0.00 0.00
5:53 pm 17:53 Sunny 86 30 58 14.4 39 39 S 14 22 29.91 1013 10 16 0.00 0.03
6:53 pm 18:53 Sunny 84 28.9 60 15.6 44 44 S 6 9 29.89 1012 10 16 0.00 0.00
7:53 pm 19:53 Clear 81 27.2 61 16.1 51 51 SSE 8 13 29.90 1013 10 16 0.00 0.00
8:53 pm 20:53 Mostly Clear 78 25.6 62 16.7 58 58 SSE 6 9 29.93 1013 10 16 0.00 0.00
9:53 pm 21:53 Clear 74 23.3 63 17.2 69 69 SSE 3 6 29.95 1014 10 16 0.00 0.00
10:53 pm 22:53 Clear 73 22.8 63 17.2 71 71 SE 5 7 29.96 1015 10 16 0.00 0.00
11:53 pm 23:53 Mostly Clear 75 23.9 65 18.3 71 71 S 7 11 29.96 1015 10 16 0.00 0.00

Powered by AerisWeather